Location: Sternwarte_Laufen
(47.9344°N, 12.9346°E)
Time: 16:48:31
(UTC+02:00)

ISS - Pass Details

Date: 13 July 2018
Orbit: 402 x 408 km, 51.6° (Epoch: 20 July)

Event Time Altitude Azimuth Distance (km) Brightness Sun altitude
Exits shadow 01:57:59 46° 103° (ESE) 557 -3.2 -19.5°
Drops below altitude 10° 02:00:35 10° 71° (ENE) 1,472 -0.6 -19.4°
Sets 02:02:42 0° 68° (ENE) 2,336 0.5 -19.4°
